Home > Weather > Iqaluit > Past weeks

Flag for Canada Past Weather in Iqaluit, Nunavut, Canada — Yesterday and Last 2 Weeks

Now
27 °F

More clouds than sun.


Feels Like: 15 °F
Forecast: 24 / 31 °F
Wind: 14 mph from North

Location: Iqaluit

Current Time: May 28, 2016 at 11:57:36 PM

Latest Report: May 28, 2016 at 11:00 PM


Visibility: 12 mi

Pressure: 30.17 "Hg

Humidity: 80%

Dew Point: 21 °F

Location of IqaluitLocation

Past Weather in Iqaluit — Graph

°F

Iqaluit Temperature Yesterday

Maximum temperature yesterday: 36 °F (at 1:00 PM)
Minimum temperature yesterday: 27 °F (at 3:00 AM)
Average temperature yesterday: 31 °F

High & Low Weather Summary for the Past Weeks

 TemperatureHumidityPressure
High43 °F (May 16, 2:00 PM)100% (May 14, 2:00 AM)30.21 "Hg (May 14, 2:00 AM)
Low25 °F (May 20, 2:00 AM)55% (May 25, 10:00 AM)29.40 "Hg (May 23, 10:00 AM)
Average32 °F80%29.83 "Hg
* Reported May 13 10:00 PM — May 28 10:00 PM, Iqaluit, Weather by CustomWeather, © 2016

Note: Actual official high and low records may vary slightly from our data, if they occured in-between our weather recording intervals... More about our weather records

Advertising

Iqaluit Weather History for the Previous 24 Hours

Scroll right to see more
 ConditionsComfort  
Time TempWeatherWind HumidityBarometerVisibility
10:00 PM
Sat, May 28
27 °FLight snow. Mostly cloudy.13 mph86%30.18 "Hg3 mi
9:00 PM28 °FLight snow. Cloudy.13 mph74%30.18 "Hg30 mi
8:00 PM28 °FMore clouds than sun.14 mph69%30.18 "Hg30 mi
7:00 PM30 °FCloudy.16 mph59%30.18 "Hg30 mi
6:00 PM30 °FMore clouds than sun.13 mph64%30.17 "Hg30 mi
5:00 PM30 °FMore clouds than sun.17 mph64%30.17 "Hg30 mi
4:00 PM30 °FOvercast.20 mph69%30.15 "Hg30 mi
3:00 PM32 °FOvercast.16 mph69%30.14 "Hg30 mi
2:00 PM30 °FOvercast.20 mph75%30.14 "Hg30 mi
1:00 PM32 °FOvercast.23 mph69%30.13 "Hg30 mi
12:00 PM30 °FOvercast.24 mph80%30.12 "Hg20 mi
11:00 AM30 °FOvercast.7 mph80%30.11 "Hg30 mi
10:00 AM28 °FOvercast.7 mph86%30.11 "Hg30 mi
9:00 AM28 °FOvercast.3 mph74%30.11 "Hg30 mi
8:00 AM28 °FMore clouds than sun.2 mph80%30.11 "Hg30 mi
7:00 AM28 °FLight snow. Mostly cloudy.5 mph74%30.11 "Hg6 mi
6:00 AM28 °FMore clouds than sun.8 mph74%30.11 "Hg30 mi
5:00 AM28 °FOvercast.8 mph74%30.11 "Hg30 mi
4:00 AM28 °FOvercast.12 mph74%30.10 "Hg25 mi
3:00 AM28 °FLight snow. Overcast.12 mph80%30.11 "Hg15 mi
2:00 AM28 °FLight snow. Mostly cloudy.15 mph80%30.10 "Hg30 mi
1:00 AM28 °FLight snow. Overcast.8 mph80%30.10 "Hg30 mi
12:00 AM28 °FOvercast.9 mph74%30.10 "Hg30 mi
11:00 PM
Fri, May 27
30 °FMostly cloudy.10 mph75%30.10 "Hg30 mi
Weather by CustomWeather, © 2016

See weather overviewHow to use our weather pages